Temperature
18 18 18 18 18 18 18 18 18 18 18 18 17 17 17 17 16 16 16 16 16 15 15 15 15 15 15 15 15 15 15 15 15 15 15 16 16 16 16 16 16 16 16
18 19 19 19 19 18 18 18 18 18 18 17 17 17 16 16 16 16 15 15 15 14 14 14 14 15 15 15 15 14 14 14 14 14 14 15 15 16 16 16 16 16 17
19 19 19 19 19 19 18 18 18 18 17 17 17 16 16 16 15 15 15 15 14 14 14 14 14 14 14 14 14 14 14 14 14 14 14 14 15 15 16 16 16 16 17
19 19 19 19 19 19 18 18 17 17 17 16 16 16 15 15 14 14 14 14 14 14 14 13 13 14 14 14 14 14 14 14 14 14 14 14 14 14 15 16 16 16 17
20 20 20 20 19 19 18 17 17 16 16 15 15 15 14 14 13 13 13 13 13 13 13 13 13 13 13 13 13 13 13 13 13 13 13 14 14 14 14 14 16 16 17
20 20 20 19 19 18 18 17 16 16 15 15 14 14 14 13 13 12 12 12 12 12 12 12 12 12 12 12 13 13 13 13 13 13 13 13 13 13 14 14 15 16 16
20 20 20 19 19 18 17 17 16 16 15 15 14 14 13 13 12 12 12 11 11 11 12 12 12 12 12 12 12 12 12 12 13 13 13 13 13 13 13 13 14 15 15
20 20 19 19 18 18 17 16 16 15 14 14 13 13 12 12 12 11 11 11 11 11 11 11 11 11 11 11 11 11 12 12 12 12 12 12 13 13 13 13 13 14 15
20 19 19 18 18 17 16 16 15 14 14 13 13 12 12 11 11 11 11 11 10 10 10 10 10 10 10 11 11 11 11 11 11 11 12 12 12 12 12 13 13 13 14
19 19 18 18 17 16 16 15 14 14 13 12 12 12 11 11 11 10 10 10 10 10 10 10 10 10 10 10 10 10 10 11 11 11 11 11 12 12 12 12 12 13 13
19 19 18 17 17 16 15 14 14 13 12 12 12 11 11 10 10 10 10 9 9 9 9 9 9 9 10 10 10 10 10 10 10 10 11 11 11 11 12 12 12 12 13
19 18 17 17 16 15 14 14 13 12 12 11 11 11 10 10 10 10 9 9 9 9 9 9 9 9 9 9 9 9 9 10 10 10 10 10 11 11 11 11 12 12 12
18 17 17 16 15 14 14 13 12 12 12 11 11 10 10 10 10 9 9 9 9 9 9 9 8 9 9 9 9 9 9 9 9 10 10 10 10 10 11 11 11 11 12
17 17 16 15 14 14 13 12 12 12 11 11 10 10 10 10 9 9 9 9 9 9 8 8 8 8 8 8 9 9 9 9 9 9 9 10 10 10 10 11 11 11 11
17 16 15 15 14 13 13 12 12 11 11 11 10 10 10 9 9 9 9 9 8 8 8 8 8 8 8 8 8 8 8 8 9 9 9 9 10 10 10 10 11 11 11
16 16 15 14 13 13 12 12 11 11 11 10 10 10 9 9 9 9 8 8 8 8 8 8 8 8 8 8 8 8 8 8 8 8 9 9 9 9 10 10 10 10 11
16 15 14 14 13 12 12 11 11 11 10 10 10 9 9 9 9 8 8 8 8 8 8 8 8 8 8 8 8 8 7 7 8 8 8 8 9 9 9 10 10 10 10
16 15 14 13 13 12 12 11 11 10 10 10 9 9 9 9 8 8 8 8 8 8 8 8 8 8 8 8 8 7 7 7 7 8 8 8 8 8 9 9 9 10 10
15 15 14 13 12 12 11 11 11 10 10 10 9 9 9 8 8 8 8 8 8 8 8 8 8 8 8 8 7 7 7 7 7 7 8 8 8 8 9 9 9 9 10
15 14 14 13 12 12 11 11 10 10 10 9 9 9 8 8 8 8 8 8 8 8 8 8 8 7 7 7 7 7 7 7 7 7 7 8 8 8 8 9 9 9 10
15 14 13 13 12 11 11 10 10 10 9 9 9 9 9 8 8 8 8 8 8 8 8 8 8 7 7 7 7 7 6 7 7 7 7 7 8 8 8 8 9 9 9
15 14 13 13 12 11 11 10 10 10 9 9 9 9 9 8 8 8 8 8 8 8 7 7 7 7 7 7 7 6 6 6 6 7 7 7 7 8 8 8 8 9 9
15 14 13 12 12 11 10 10 10 10 9 9 9 9 9 9 8 8 8 8 8 7 7 7 7 7 7 6 6 6 6 6 6 6 7 7 7 7 8 8 8 9 9
15 14 13 12 12 11 10 10 10 9 9 9 9 9 9 9 9 8 8 8 8 7 7 7 7 6 6 6 6 6 6 6 6 6 6 7 7 7 8 8 8 8 9
15 14 13 12 12 11 10 10 10 9 9 9 9 9 9 9 9 9 8 8 8 7 7 7 7 6 6 6 6 6 6 6 6 6 6 7 7 7 7 8 8 8 8
15 14 13 12 12 11 10 10 10 9 9 9 9 9 9 9 9 9 9 8 8 8 7 7 7 6 6 6 6 6 6 6 6 6 6 7 7 7 8 8 8 8 8
Wind_Speed
4 5 5 6 6 5 5 5 5 4 4 3 3 3 3 3 3 3 3 2 2 2 1 1 2 2 2 4 4 3 4 4 3 3 4 5 7 9 9 9 9 11 14
5 5 5 5 5 5 5 5 5 4 4 2 2 1 0 1 1 2 4 5 4 4 3 3 3 3 3 4 4 3 3 3 3 2 3 3 4 5 9 8 9 10 9
8 8 7 7 6 7 7 7 7 5 4 3 2 2 3 3 3 4 4 4 5 6 5 5 5 5 4 5 5 4 4 4 3 3 3 3 3 3 3 6 8 8 8
8 8 9 8 8 8 7 7 6 5 4 4 3 2 1 1 3 3 3 6 6 7 6 5 5 5 5 5 5 4 3 3 4 3 3 4 3 3 3 3 4 6 7
10 10 10 9 7 6 5 5 5 4 3 3 4 3 2 3 3 3 5 5 6 6 6 5 4 4 4 5 5 4 4 3 3 3 3 3 3 3 3 4 3 2 3
8 7 5 4 3 4 4 5 5 4 3 4 3 4 4 4 4 5 5 5 5 5 6 5 4 4 4 5 5 5 4 4 4 4 4 3 3 2 2 3 3 3 3
5 5 5 5 4 5 5 4 4 3 3 3 4 4 5 5 5 5 5 5 4 5 6 6 4 3 4 5 5 4 5 5 4 5 4 4 4 3 2 2 2 3 3
5 6 6 5 5 5 5 4 3 2 2 3 4 5 5 4 4 5 5 5 5 6 6 6 5 5 6 6 5 4 6 5 5 6 5 4 4 4 3 3 2 2 2
6 6 5 5 5 5 3 3 3 2 2 3 4 5 5 5 5 6 6 5 5 6 7 6 6 6 6 6 5 5 6 6 6 6 6 5 4 4 4 4 4 3 2
6 6 5 5 4 3 2 2 2 2 3 4 4 4 5 6 6 6 6 7 7 7 7 7 7 7 7 7 6 6 6 6 7 6 6 6 5 4 4 4 4 4 3
7 5 5 4 3 3 2 1 1 2 3 4 4 5 5 6 6 6 7 7 7 7 8 8 8 8 8 7 7 7 7 7 7 7 7 8 6 5 4 4 4 5 4
6 5 4 3 2 2 2 2 3 3 4 5 5 5 6 6 6 7 8 8 8 8 8 8 8 9 9 8 8 8 8 8 8 8 8 8 7 7 5 4 5 5 5
6 4 2 2 2 3 4 4 4 5 5 5 5 6 7 7 8 8 8 8 8 9 8 8 9 9 9 9 9 9 9 9 9 9 9 9 8 8 6 6 5 5 5
6 4 2 2 4 4 5 5 5 5 5 5 5 7 8 8 8 9 9 9 9 9 9 9 9 9 10 10 10 9 9 9 9 9 9 9 9 10 9 7 7 6 5
5 4 3 3 4 5 5 5 5 5 5 5 7 8 8 8 8 8 9 9 9 10 9 9 9 9 9 10 10 10 10 9 9 9 9 10 12 14 11 8 7 6 5
4 3 2 3 4 5 5 5 5 6 5 6 7 8 8 8 8 9 9 9 9 9 9 9 10 10 10 13 15 12 9 8 9 9 8 9 11 13 16 15 13 11 8
4 3 3 4 5 5 5 5 6 6 6 7 8 8 8 8 9 10 9 9 9 9 9 9 9 10 12 16 17 18 11 9 9 9 8 9 9 10 9 12 15 14 14
5 4 4 4 4 4 4 5 5 6 7 7 8 8 8 9 9 9 10 10 9 9 9 10 10 10 12 16 16 17 12 10 10 10 10 10 9 9 8 8 8 9 9
5 4 4 3 3 4 5 5 6 7 7 8 8 9 9 10 10 10 11 10 9 9 9 9 10 10 12 15 16 15 8 8 10 11 11 10 10 12 13 9 8 8 7
4 3 3 2 3 5 5 5 7 7 8 8 8 9 9 10 11 11 11 10 9 10 9 9 9 10 11 13 14 13 6 8 8 8 9 13 13 13 14 10 9 9 8
5 3 2 2 4 5 4 5 7 8 8 8 8 9 9 10 10 9 9 9 9 9 9 9 9 8 10 11 12 11 6 7 7 7 7 8 14 15 15 13 9 11 9
3 3 1 3 5 5 4 6 7 8 7 8 8 9 10 10 10 9 10 9 8 8 8 8 8 6 7 7 8 10 9 8 7 6 6 7 13 14 14 11 11 13 10
4 3 2 4 5 5 4 6 7 7 7 8 9 10 11 10 9 9 10 9 8 6 6 6 6 6 6 5 7 8 7 7 5 5 7 8 11 11 9 11 13 11 7
3 3 2 4 6 6 6 6 7 6 7 8 9 9 10 11 10 8 7 7 7 7 6 6 6 6 6 5 4 4 3 3 3 2 2 4 7 7 7 7 7 6 7
4 3 3 5 6 6 7 7 6 5 7 8 9 9 9 9 10 9 7 7 7 7 6 6 5 5 6 6 7 4 3 2 3 3 2 2 3 4 4 4 4 4 5
4 4 4 5 6 6 6 6 5 5 6 8 8 8 8 8 8 8 9 9 9 10 9 9 7 6 8 10 8 6 5 4 6 4 3 3 4 5 5 6 5 5 6
Wind_Direction
137 131 132 128 124 117 111 108 100 83 70 54 46 36 6 351 352 345 339 318 293 272 228 239 254 250 249 259 270 272 278 271 258 266 278 266 246 239 236 229 225 223 225
165 163 161 162 158 156 154 148 139 129 115 108 109 129 235 311 331 354 354 350 330 307 279 249 248 245 244 257 259 255 269 269 244 233 267 284 280 248 235 226 225 227 223
186 188 190 195 190 186 183 172 169 157 144 130 97 48 32 12 2 350 335 326 318 303 287 268 254 245 229 239 247 240 242 266 268 226 226 246 258 284 255 229 229 227 221
194 195 197 198 201 203 188 174 169 159 152 132 116 114 110 281 272 276 292 307 310 305 299 285 265 249 234 231 241 234 229 240 268 268 241 237 250 269 302 283 238 230 224
200 199 201 202 205 198 174 166 155 157 162 155 153 155 201 233 261 284 302 307 309 307 307 302 286 267 250 240 237 239 236 231 241 247 254 255 253 240 254 289 300 283 242
203 198 192 157 134 125 132 144 151 174 185 182 186 194 218 243 269 291 298 302 303 307 309 305 302 286 270 257 247 237 237 241 244 246 238 232 242 240 235 258 278 279 274
166 151 138 130 137 136 137 143 155 190 216 219 229 231 235 243 254 267 273 283 292 297 299 301 294 291 283 274 259 247 245 243 246 246 245 236 232 223 222 247 264 272 276
148 142 142 141 142 138 139 146 159 199 239 247 258 259 259 255 251 250 249 257 262 269 278 282 276 275 277 278 264 255 252 246 245 250 247 247 241 222 211 218 229 264 276
139 133 129 130 134 136 148 155 156 205 255 263 268 270 270 255 251 260 260 262 264 274 282 282 280 279 276 271 264 254 255 251 245 245 243 243 247 235 220 215 209 211 237
134 132 133 140 148 150 148 141 158 217 261 276 276 276 268 265 265 269 271 270 272 275 283 284 280 277 273 268 261 257 254 249 248 242 240 240 239 237 226 220 214 206 210
150 153 155 159 153 145 151 177 230 260 281 285 280 285 282 279 277 272 270 270 270 271 272 273 276 276 274 268 260 255 257 253 253 249 240 240 235 233 226 218 212 205 198
163 162 160 154 149 178 230 243 253 264 269 274 280 281 280 280 279 274 271 268 267 266 263 264 266 269 272 265 258 259 261 249 250 249 241 241 238 231 225 216 220 214 204
157 152 157 175 211 240 253 257 260 265 272 277 282 285 285 282 277 274 273 270 266 266 263 260 260 262 263 262 258 252 252 246 242 242 238 237 229 232 225 216 218 219 216
161 166 194 236 251 258 258 264 269 270 276 279 282 284 281 277 275 275 274 272 268 266 265 261 257 256 257 257 257 255 252 249 245 239 235 233 224 224 223 221 216 214 210
162 167 196 245 263 271 275 274 272 278 282 284 284 282 281 281 282 282 281 277 273 273 265 264 263 260 258 260 255 251 256 250 249 246 237 235 233 226 217 217 210 203 202
164 171 209 269 280 281 277 276 277 282 282 283 284 286 289 290 289 287 284 281 277 273 270 266 265 264 269 268 264 258 254 246 243 246 243 243 245 240 225 219 210 198 196
173 200 247 266 275 274 269 274 276 284 291 289 290 292 292 291 289 292 292 284 280 276 273 269 265 263 262 262 263 262 256 244 240 236 234 246 244 231 221 220 218 212 206
190 229 253 268 274 273 278 278 285 295 297 296 296 298 298 296 293 291 287 284 280 276 273 272 268 266 268 264 261 260 256 245 240 234 227 226 233 229 213 208 207 209 210
199 219 234 244 267 283 287 297 303 304 304 301 300 301 301 300 299 296 292 288 285 282 276 273 270 269 271 268 264 260 253 243 240 236 231 223 222 222 209 196 198 205 216
197 208 233 257 292 288 294 306 304 304 299 297 297 299 299 299 299 294 290 288 283 280 282 281 276 271 271 272 271 265 246 239 239 237 235 228 220 216 204 192 191 201 207
189 185 200 278 281 286 299 302 301 293 288 293 299 302 300 298 295 291 289 290 288 287 285 285 285 280 276 278 277 273 240 229 231 231 231 228 221 214 206 194 192 200 192
188 189 226 281 285 289 296 298 294 286 290 297 301 302 300 302 306 298 297 296 292 291 291 291 294 291 290 286 288 280 252 229 221 228 228 221 216 210 202 196 198 191 179
205 218 233 282 294 292 283 286 286 290 298 305 304 303 303 302 297 294 296 301 298 290 291 293 295 299 301 304 309 302 273 238 221 228 226 214 207 198 195 196 189 179 170
215 220 245 286 293 290 287 275 283 292 301 304 304 304 305 306 305 300 294 295 296 292 290 290 292 297 301 306 318 318 296 260 235 235 218 189 175 167 166 168 174 172 171
213 212 232 264 277 286 291 291 292 299 305 304 303 305 303 302 305 302 295 291 282 269 269 275 276 288 298 299 304 294 285 243 216 170 139 132 140 153 158 157 161 170 170
202 216 242 260 274 285 291 295 292 297 304 307 308 305 306 306 303 305 310 301 290 288 267 254 258 267 272 296 306 305 293 253 201 176 170 175 172 175 174 172 177 183 189
Height
1529 1529 1529 1529 1529 1529 1528 1528 1528 1528 1527 1527 1526 1526 1525 1524 1524 1522 1521 1520 1519 1518 1516 1515 1513 1512 1510 1508 1507 1505 1503 1502 1501 1499 1497 1497 1497 1497 1497 1499 1501 1504 1506
1529 1530 1530 1529 1529 1529 1528 1528 1527 1527 1527 1526 1525 1524 1523 1522 1521 1519 1518 1517 1515 1514 1512 1511 1509 1508 1506 1505 1503 1501 1499 1498 1498 1496 1495 1493 1492 1490 1491 1492 1494 1497 1500
1528 1528 1528 1528 1528 1527 1527 1526 1526 1525 1524 1524 1523 1522 1521 1519 1518 1516 1514 1513 1511 1509 1508 1506 1505 1504 1502 1501 1500 1498 1496 1495 1494 1493 1493 1491 1488 1486 1486 1487 1488 1490 1492
1526 1526 1526 1526 1525 1525 1524 1524 1523 1523 1522 1521 1520 1518 1517 1515 1513 1511 1509 1507 1506 1504 1502 1501 1500 1499 1498 1497 1496 1495 1493 1491 1490 1489 1489 1489 1487 1486 1483 1483 1484 1485 1486
1524 1524 1524 1524 1524 1523 1523 1522 1521 1520 1519 1518 1516 1515 1512 1510 1508 1506 1504 1502 1500 1499 1497 1496 1495 1493 1493 1492 1492 1491 1490 1488 1487 1486 1486 1485 1484 1483 1482 1480 1480 1481 1482
1522 1522 1523 1523 1522 1522 1521 1520 1519 1518 1516 1515 1513 1511 1509 1506 1504 1501 1499 1497 1495 1494 1492 1491 1490 1489 1488 1487 1487 1486 1486 1485 1484 1483 1482 1481 1481 1480 1480 1479 1478 1478 1479
1521 1521 1521 1521 1521 1520 1519 1518 1517 1516 1514 1512 1510 1508 1505 1502 1500 1497 1495 1493 1491 1489 1487 1486 1484 1483 1483 1482 1482 1481 1481 1480 1480 1479 1478 1477 1477 1477 1477 1476 1476 1475 1476
1519 1519 1520 1520 1519 1519 1517 1516 1514 1513 1511 1509 1506 1504 1501 1499 1496 1494 1491 1488 1486 1484 1482 1480 1479 1478 1477 1477 1476 1476 1475 1475 1475 1474 1474 1473 1473 1473 1473 1473 1473 1473 1474
1518 1518 1518 1518 1517 1516 1515 1513 1511 1509 1507 1505 1502 1500 1497 1494 1492 1489 1486 1484 1481 1479 1476 1475 1473 1472 1471 1471 1470 1470 1470 1469 1469 1469 1469 1469 1469 1469 1468 1469 1470 1471 1471
1517 1517 1517 1516 1515 1514 1512 1510 1508 1506 1503 1501 1498 1495 1493 1490 1487 1484 1481 1478 1476 1473 1471 1469 1467 1466 1465 1464 1464 1463 1463 1463 1463 1464 1464 1464 1464 1464 1464 1464 1464 1466 1468
1515 1515 1514 1513 1512 1510 1509 1506 1504 1502 1499 1496 1493 1491 1488 1485 1482 1479 1476 1473 1470 1468 1466 1464 1462 1460 1459 1458 1457 1456 1456 1456 1456 1457 1457 1458 1459 1459 1459 1459 1460 1461 1463
1513 1513 1512 1510 1509 1507 1505 1503 1500 1497 1495 1492 1489 1486 1482 1479 1476 1473 1470 1467 1465 1462 1460 1458 1456 1454 1452 1451 1450 1449 1449 1449 1449 1450 1451 1452 1453 1454 1454 1455 1455 1456 1458
1511 1510 1509 1507 1506 1503 1501 1499 1496 1493 1490 1487 1484 1481 1477 1474 1471 1468 1465 1462 1459 1456 1454 1452 1450 1448 1446 1445 1443 1443 1442 1442 1442 1443 1444 1445 1446 1447 1449 1450 1450 1452 1453
1508 1507 1506 1504 1502 1500 1497 1495 1492 1489 1486 1483 1479 1476 1472 1469 1465 1462 1459 1456 1453 1450 1448 1445 1443 1441 1439 1438 1436 1435 1435 1434 1435 1435 1436 1438 1439 1441 1443 1444 1445 1447 1448
1506 1504 1503 1501 1498 1496 1493 1491 1488 1485 1482 1478 1475 1471 1467 1464 1460 1456 1453 1450 1447 1444 1441 1439 1436 1434 1432 1430 1429 1428 1427 1427 1427 1428 1429 1430 1432 1434 1436 1438 1440 1441 1443
1502 1501 1499 1497 1495 1492 1489 1487 1484 1481 1477 1473 1470 1466 1462 1458 1454 1450 1447 1443 1440 1437 1435 1432 1429 1427 1425 1423 1422 1421 1420 1419 1419 1420 1421 1423 1425 1427 1429 1431 1434 1436 1438
1499 1497 1496 1493 1491 1488 1486 1483 1479 1476 1473 1469 1465 1461 1457 1453 1449 1444 1440 1437 1434 1431 1428 1425 1422 1419 1417 1416 1414 1413 1412 1411 1411 1412 1413 1415 1417 1420 1422 1425 1428 1430 1432
1496 1494 1492 1490 1487 1485 1482 1479 1476 1472 1468 1465 1461 1456 1452 1447 1443 1439 1435 1431 1428 1424 1421 1418 1415 1412 1409 1408 1406 1404 1403 1402 1402 1403 1405 1407 1409 1413 1416 1419 1421 1424 1427
1492 1491 1489 1487 1484 1481 1478 1475 1472 1468 1464 1460 1456 1452 1447 1442 1437 1433 1429 1425 1422 1418 1414 1411 1408 1405 1402 1400 1398 1396 1395 1394 1394 1395 1397 1399 1401 1405 1409 1412 1415 1418 1422
1489 1487 1486 1483 1481 1478 1475 1471 1468 1464 1460 1456 1452 1447 1442 1437 1432 1428 1424 1420 1416 1412 1409 1405 1402 1398 1395 1392 1390 1388 1387 1386 1386 1387 1389 1391 1394 1398 1401 1405 1409 1412 1416
1486 1484 1482 1480 1477 1474 1471 1468 1464 1461 1457 1452 1448 1443 1438 1433 1428 1424 1420 1416 1411 1407 1403 1399 1396 1392 1389 1386 1383 1381 1380 1379 1379 1380 1381 1384 1387 1391 1395 1399 1403 1407 1411
1483 1481 1479 1477 1474 1471 1468 1464 1461 1457 1453 1449 1444 1439 1434 1429 1425 1420 1416 1411 1407 1402 1398 1394 1390 1387 1383 1380 1378 1376 1374 1373 1373 1374 1376 1379 1382 1385 1389 1393 1398 1402 1407
1480 1478 1476 1474 1471 1468 1465 1461 1458 1454 1449 1445 1440 1435 1431 1426 1421 1417 1412 1407 1403 1398 1394 1390 1386 1382 1379 1376 1374 1371 1370 1369 1369 1370 1372 1374 1377 1381 1385 1389 1394 1398 1402
1477 1475 1473 1470 1468 1465 1462 1458 1454 1450 1446 1442 1437 1432 1427 1422 1418 1413 1409 1404 1399 1394 1390 1386 1383 1379 1376 1373 1370 1368 1367 1367 1367 1367 1369 1371 1374 1377 1382 1386 1390 1394 1399
1473 1471 1469 1467 1464 1461 1458 1455 1451 1447 1443 1438 1434 1429 1425 1420 1415 1411 1406 1401 1397 1392 1388 1384 1380 1376 1373 1371 1369 1367 1365 1365 1365 1366 1368 1369 1372 1375 1378 1382 1387 1391 1395
1469 1468 1466 1463 1461 1458 1455 1452 1448 1444 1440 1435 1431 1426 1422 1417 1413 1408 1403 1399 1394 1390 1385 1382 1378 1375 1372 1369 1367 1366 1365 1364 1365 1366 1367 1369 1371 1373 1376 1380 1384 1388 1392